Location: Astor
(29.1620°N, 81.5260°W)
Time: 06:29:18
(UTC-04:00)

N. Korean satellite - Visible Passes

Search period start: 25 March 2019 00:00
Search period end: 04 April 2019 00:00
Orbit: 456 x 510 km, 97.2° (Epoch: 24 March)

Date Brightness Start Highest point End Pass type
(mag) Time Alt. Az. Time Alt. Az. Time Alt. Az.
26 Mar 9.2 06:56:15 10° NE 06:59:21 27° E 07:02:28 10° SSE visible
27 Mar 10.1 06:32:56 10° ENE 06:34:27 12° E 06:35:56 10° ESE visible
30 Mar 9.5 06:50:31 10° NE 06:53:26 22° E 06:56:22 10° SSE visible
31 Mar 10.5 06:28:06 10° E 06:28:30 10° E 06:28:55 10° E visible
03 Apr 9.7 06:44:48 10° NE 06:47:29 19° E 06:50:11 10° SE visible
